Location: Unspecified
(0.0000°N, 0.0000°E)
Time: 20:02:44
(UTC+00:00)

Tiros 1 - Pass Details

Date: 22 October 2021
Orbit: 630 x 664 km, 48.4° (Epoch: 04 December)

Event Time Altitude Azimuth Distance (km) Brightness Sun altitude
Rises 06:16:19 0° 184° (S) 2,986 10.7 7.8°
Reaches altitude 10° 06:20:11 10° 153° (SSE) 2,076 10.4 8.8°
Maximum altitude 06:22:01 12° 131° (SE) 1,940 10.9 9.2°
Drops below altitude 10° 06:23:52 10° 108° (ESE) 2,075 12.7 9.7°
Sets 06:27:42 0° 77° (ENE) 2,983 11.9 10.6°
